TimeCDT,TemperatureF,Dew PointF,Humidity,Sea Level PressureIn,VisibilityMPH,Wind Direction,Wind SpeedMPH,Gust SpeedMPH,PrecipitationIn,Events,Conditions,WindDirDegrees,DateUTC
12:54 AM,46.9,37.9,71,30.29,10.0,ESE,3.5,-,N/A,,Scattered Clouds,110,2013-04-25 05:54:00
1:54 AM,45.0,37.9,76,30.29,10.0,East,3.5,-,N/A,,Clear,100,2013-04-25 06:54:00
2:54 AM,42.1,37.9,85,30.30,10.0,Calm,Calm,-,N/A,,Clear,0,2013-04-25 07:54:00
3:54 AM,45.0,37.9,76,30.31,10.0,SSE,5.8,-,N/A,,Clear,160,2013-04-25 08:54:00
4:54 AM,41.0,37.0,86,30.32,10.0,South,3.5,-,N/A,,Clear,170,2013-04-25 09:54:00
5:54 AM,41.0,37.0,86,30.33,10.0,Calm,Calm,-,N/A,,Clear,0,2013-04-25 10:54:00
6:54 AM,42.1,37.0,82,30.35,10.0,Calm,Calm,-,N/A,,Clear,0,2013-04-25 11:54:00
7:54 AM,46.0,39.0,76,30.37,10.0,SSE,3.5,-,N/A,,Clear,150,2013-04-25 12:54:00
8:54 AM,50.0,39.0,66,30.39,10.0,Variable,3.5,-,N/A,,Clear,0,2013-04-25 13:54:00
9:54 AM,55.0,37.9,53,30.40,10.0,Calm,Calm,-,N/A,,Clear,0,2013-04-25 14:54:00
10:54 AM,57.0,37.9,49,30.40,10.0,ESE,3.5,-,N/A,,Clear,120,2013-04-25 15:54:00
11:54 AM,62.1,36.0,38,30.40,10.0,NNE,5.8,-,N/A,,Clear,20,2013-04-25 16:54:00
12:54 PM,63.0,37.0,38,30.38,10.0,Calm,Calm,-,N/A,,Clear,0,2013-04-25 17:54:00
1:54 PM,66.0,37.0,34,30.37,10.0,Calm,Calm,-,N/A,,Clear,0,2013-04-25 18:54:00
2:54 PM,68.0,33.1,27,30.35,10.0,Calm,Calm,-,N/A,,Clear,0,2013-04-25 19:54:00
3:54 PM,68.0,33.1,27,30.32,10.0,NE,5.8,-,N/A,,Partly Cloudy,40,2013-04-25 20:54:00
4:54 PM,69.1,30.9,24,30.31,10.0,East,4.6,-,N/A,,Partly Cloudy,100,2013-04-25 21:54:00
5:54 PM,69.1,30.9,24,30.32,10.0,Variable,3.5,-,N/A,,Partly Cloudy,0,2013-04-25 22:54:00
6:54 PM,66.9,32.0,27,30.31,10.0,NE,5.8,-,N/A,,Partly Cloudy,40,2013-04-25 23:54:00
7:54 PM,62.1,36.0,38,30.31,10.0,East,6.9,-,N/A,,Partly Cloudy,90,2013-04-26 00:54:00
8:54 PM,61.0,37.0,41,30.32,10.0,East,3.5,-,N/A,,Partly Cloudy,90,2013-04-26 01:54:00
9:54 PM,59.0,36.0,42,30.33,10.0,ESE,3.5,-,N/A,,Partly Cloudy,110,2013-04-26 02:54:00
10:54 PM,57.9,37.0,46,30.33,10.0,East,4.6,-,N/A,,Partly Cloudy,90,2013-04-26 03:54:00
11:54 PM,57.0,37.9,49,30.31,10.0,ESE,5.8,-,N/A,,Partly Cloudy,110,2013-04-26 04:54:00